Météo par heure à Abanilla

Ce jour, 28 Novembre, Samedi

Heure Température Précipitation Vent Pression Humidité
00:00 +12°C° 0 mm 1 m/s 731 mmHg 87%
01:00 +11°C° 0 mm 1 m/s 731 mmHg 87%
02:00 +10°C° 0 mm 2 m/s 731 mmHg 87%
03:00 +10°C° 0 mm 2 m/s 731 mmHg 87%
04:00 +10°C° 0 mm 2 m/s 731 mmHg 86%
05:00 +10°C° 0 mm 2 m/s 731 mmHg 85%
06:00 +10°C° 0 mm 3 m/s 731 mmHg 84%
07:00 +11°C° 0 mm 3 m/s 732 mmHg 81%
08:00 +12°C° 0 mm 4 m/s 732 mmHg 78%
09:00 +12°C° 0 mm 4 m/s 732 mmHg 74%
10:00 +13°C° 0.2 mm 4 m/s 732 mmHg 73%
11:00 +14°C° 0.2 mm 5 m/s 733 mmHg 71%
12:00 +14°C° 0.2 mm 5 m/s 733 mmHg 70%
13:00 +15°C° 0 mm 5 m/s 733 mmHg 66%
14:00 +15°C° 0 mm 4 m/s 733 mmHg 63%
15:00 +17°C° 0 mm 4 m/s 733 mmHg 60%
16:00 +15°C° 0 mm 4 m/s 733 mmHg 63%
17:00 +14°C° 0 mm 4 m/s 734 mmHg 67%
18:00 +13°C° 0 mm 4 m/s 734 mmHg 71%
19:00 +12°C° 0 mm 3 m/s 735 mmHg 71%
20:00 +12°C° 0 mm 3 m/s 736 mmHg 72%
21:00 +13°C° 0 mm 2 m/s 736 mmHg 72%
22:00 +12°C° 0 mm 2 m/s 736 mmHg 72%
23:00 +12°C° 0 mm 2 m/s 737 mmHg 72%

Demain, 29 Novembre, Dimanche

Heure Température Précipitation Vent Pression Humidité
00:00 +12°C° 0 mm 2 m/s 737 mmHg 72%
01:00 +10°C° 0 mm 2 m/s 737 mmHg 73%
02:00 +10°C° 0 mm 2 m/s 737 mmHg 74%
03:00 +10°C° 0 mm 2 m/s 738 mmHg 74%
04:00 +10°C° 0 mm 2 m/s 738 mmHg 75%
05:00 +9°C° 0 mm 2 m/s 738 mmHg 77%
06:00 +9°C° 0 mm 2 m/s 738 mmHg 78%
07:00 +10°C° 0 mm 2 m/s 739 mmHg 74%
08:00 +13°C° 0 mm 1 m/s 739 mmHg 70%
09:00 +14°C° 0 mm 1 m/s 740 mmHg 65%
10:00 +15°C° 0 mm 1 m/s 740 mmHg 62%
11:00 +16°C° 0 mm 1 m/s 740 mmHg 59%
12:00 +18°C° 0 mm 1 m/s 740 mmHg 55%
13:00 +19°C° 0 mm 1 m/s 740 mmHg 55%
14:00 +19°C° 0 mm 1 m/s 740 mmHg 54%
15:00 +18°C° 0 mm 2 m/s 740 mmHg 53%
16:00 +16°C° 0 mm 1 m/s 740 mmHg 61%
17:00 +15°C° 0 mm 1 m/s 741 mmHg 69%
18:00 +13°C° 0 mm 1 m/s 741 mmHg 77%
19:00 +13°C° 0 mm 1 m/s 741 mmHg 80%
20:00 +12°C° 0 mm 1 m/s 741 mmHg 83%
21:00 +12°C° 0 mm 1 m/s 742 mmHg 86%
22:00 +12°C° 0 mm 1 m/s 742 mmHg 87%
23:00 +10°C° 0 mm 0 m/s 742 mmHg 88%

Après-demain, 30 Novembre, Lundi

Heure Température Précipitation Vent Pression Humidité
00:00 +10°C° 0 mm 0 m/s 742 mmHg 89%
01:00 +10°C° 0 mm 0 m/s 742 mmHg 89%
02:00 +10°C° 0 mm 0 m/s 742 mmHg 90%
03:00 +9°C° 0 mm 0 m/s 742 mmHg 90%
04:00 +9°C° 0 mm 0 m/s 742 mmHg 89%
05:00 +10°C° 0 mm 1 m/s 742 mmHg 89%
06:00 +10°C° 0 mm 1 m/s 743 mmHg 89%
07:00 +12°C° 0 mm 1 m/s 743 mmHg 84%
08:00 +13°C° 0 mm 1 m/s 743 mmHg 79%
09:00 +15°C° 0 mm 1 m/s 744 mmHg 74%
10:00 +16°C° 0 mm 1 m/s 744 mmHg 71%
11:00 +17°C° 0 mm 2 m/s 744 mmHg 69%
12:00 +18°C° 0 mm 3 m/s 744 mmHg 66%
13:00 +17°C° 0 mm 3 m/s 744 mmHg 68%
14:00 +17°C° 0 mm 3 m/s 744 mmHg 70%
15:00 +17°C° 0 mm 3 m/s 743 mmHg 72%
16:00 +16°C° 0 mm 3 m/s 743 mmHg 78%
17:00 +15°C° 0 mm 2 m/s 744 mmHg 85%
18:00 +14°C° 0 mm 2 m/s 744 mmHg 91%
19:00 +13°C° 0 mm 2 m/s 744 mmHg 92%
20:00 +13°C° 0 mm 2 m/s 744 mmHg 92%
21:00 +13°C° 0 mm 2 m/s 745 mmHg 93%
22:00 +13°C° 0 mm 2 m/s 745 mmHg 92%
23:00 +13°C° 0 mm 2 m/s 745 mmHg 92%

1 Décembre, Mardi

Heure Température Précipitation Vent Pression Humidité
00:00 +12°C° 0 mm 2 m/s 745 mmHg 91%
01:00 +13°C° 0 mm 2 m/s 744 mmHg 90%
02:00 +13°C° 0 mm 2 m/s 744 mmHg 88%
03:00 +13°C° 0 mm 1 m/s 744 mmHg 87%
04:00 +13°C° 0 mm 2 m/s 744 mmHg 86%
05:00 +13°C° 0 mm 2 m/s 744 mmHg 86%
06:00 +13°C° 0 mm 2 m/s 744 mmHg 85%
07:00 +14°C° 0 mm 2 m/s 744 mmHg 82%
08:00 +14°C° 0 mm 2 m/s 744 mmHg 80%
09:00 +15°C° 0 mm 2 m/s 744 mmHg 77%
10:00 +16°C° 0 mm 2 m/s 744 mmHg 73%
11:00 +16°C° 0 mm 2 m/s 744 mmHg 69%
12:00 +18°C° 0 mm 1 m/s 744 mmHg 65%
13:00 +17°C° 0 mm 2 m/s 743 mmHg 65%
14:00 +17°C° 0 mm 2 m/s 743 mmHg 65%
15:00 +17°C° 0 mm 2 m/s 743 mmHg 65%
16:00 +16°C° 0 mm 1 m/s 743 mmHg 72%
17:00 +15°C° 0 mm 1 m/s 743 mmHg 80%
18:00 +14°C° 0 mm 1 m/s 742 mmHg 87%
19:00 +13°C° 0 mm 1 m/s 742 mmHg 89%
20:00 +12°C° 0 mm 0 m/s 742 mmHg 90%
21:00 +11°C° 0 mm 0 m/s 742 mmHg 92%
22:00 +11°C° 0 mm 0 m/s 742 mmHg 92%
23:00 +11°C° 0 mm 0 m/s 742 mmHg 92%

2 Décembre, Mercredi

Heure Température Précipitation Vent Pression Humidité
00:00 +10°C° 0 mm 0 m/s 742 mmHg 93%
01:00 +11°C° 0 mm 1 m/s 742 mmHg 92%
02:00 +11°C° 0 mm 1 m/s 741 mmHg 92%
03:00 +11°C° 0 mm 1 m/s 741 mmHg 92%
04:00 +11°C° 0 mm 1 m/s 741 mmHg 91%
05:00 +10°C° 0 mm 1 m/s 740 mmHg 89%
06:00 +10°C° 0 mm 1 m/s 740 mmHg 88%
07:00 +10°C° 0 mm 2 m/s 740 mmHg 77%
08:00 +12°C° 0 mm 2 m/s 740 mmHg 66%
09:00 +13°C° 0 mm 3 m/s 740 mmHg 55%
10:00 +14°C° 0 mm 4 m/s 740 mmHg 50%
11:00 +15°C° 0 mm 4 m/s 739 mmHg 45%
12:00 +16°C° 0 mm 5 m/s 739 mmHg 40%
13:00 +16°C° 0 mm 5 m/s 739 mmHg 41%
14:00 +17°C° 0 mm 5 m/s 738 mmHg 42%
15:00 +17°C° 0 mm 5 m/s 738 mmHg 43%
16:00 +15°C° 0 mm 4 m/s 738 mmHg 50%
17:00 +13°C° 0 mm 3 m/s 738 mmHg 57%
18:00 +13°C° 0 mm 2 m/s 738 mmHg 65%
19:00 +12°C° 0 mm 2 m/s 738 mmHg 68%
20:00 +11°C° 0 mm 1 m/s 738 mmHg 71%
21:00 +11°C° 0 mm 1 m/s 738 mmHg 74%
22:00 +10°C° 0 mm 1 m/s 738 mmHg 75%
23:00 +10°C° 0 mm 1 m/s 738 mmHg 77%

3 Décembre, Jeudi

Heure Température Précipitation Vent Pression Humidité
00:00 +10°C° 0 mm 1 m/s 738 mmHg 78%
01:00 +10°C° 0 mm 1 m/s 737 mmHg 77%
02:00 +9°C° 0 mm 1 m/s 737 mmHg 76%
03:00 +9°C° 0 mm 1 m/s 737 mmHg 75%
04:00 +9°C° 0 mm 1 m/s 736 mmHg 73%
05:00 +9°C° 0 mm 1 m/s 736 mmHg 72%
06:00 +9°C° 0 mm 1 m/s 736 mmHg 70%
07:00 +10°C° 0 mm 1 m/s 736 mmHg 65%
08:00 +11°C° 0 mm 1 m/s 736 mmHg 60%
09:00 +12°C° 0 mm 1 m/s 737 mmHg 54%
10:00 +13°C° 0 mm 2 m/s 736 mmHg 48%
11:00 +14°C° 0 mm 2 m/s 736 mmHg 43%
12:00 +15°C° 0 mm 2 m/s 736 mmHg 37%
13:00 +15°C° 0 mm 2 m/s 735 mmHg 35%
14:00 +15°C° 0 mm 2 m/s 735 mmHg 33%
15:00 +15°C° 0 mm 2 m/s 734 mmHg 31%
16:00 +14°C° 0 mm 2 m/s 734 mmHg 35%
17:00 +13°C° 0 mm 2 m/s 734 mmHg 40%
18:00 +12°C° 0 mm 1 m/s 734 mmHg 44%
19:00 +12°C° 0 mm 1 m/s 734 mmHg 48%
20:00 +12°C° 0 mm 1 m/s 734 mmHg 51%
21:00 +12°C° 0 mm 1 m/s 734 mmHg 55%
22:00 +12°C° 0 mm 1 m/s 733 mmHg 57%
23:00 +11°C° 0 mm 1 m/s 733 mmHg 58%
Voir plus

Nous avons besoin de votre consentement

Meteoprog et ses fournisseurs de services peuvent stocker et accéder à des données personnelles telles que des cookies, des identifiants d'appareils ou d'autres technologies similaires sur votre appareil et traiter ces données pour personnaliser le contenu et les publicités, ainsi que pour fournir des fonctionnalités de médias sociaux et analyser le trafic.

  • Stocker et/ou accéder à des informations sur votre appareil

    Des cookies, des identifiants d'appareils ou d'autres informations peuvent être stockés ou accessibles sur votre appareil aux fins indiquées ci-dessus.

  • Annonces et contenus personnalisés, mesure des annonces et des contenus, connaissance de l'audience et développement de produits

    Les annonces et le contenu peuvent être personnalisés en fonction d'un profil. D'autres données peuvent être ajoutées pour mieux personnaliser les annonces et le contenu. Les performances des publicités et du contenu peuvent être mesurées. Il est possible d'obtenir des informations sur le public qui a vu les publicités et le contenu. Ces données peuvent être utilisées pour développer ou améliorer l'expérience de l'utilisateur, les systèmes et les logiciels.

En cliquant sur "J'accepte", vous autorisez l'utilisation de cookies, des identifiants d'appareils, des balises web ou d'autres technologies similaires. Vos paramètres peuvent être modifiés dans le navigateur de votre appareil.

Dans certains cas, des intérêts légitimes peuvent être invoqués plutôt qu'un consentement. Vous pouvez en savoir plus à ce sujet dans notre Politique de confidentialité et de cookies.